Wind_Speed
5 7 9 11 14 17 21 23 24 25 26 28 29 32 36 41 45 50 53 41 34 34 28 20 16 14 17 23 29 28 27 26 35 53 60 59 59 57 57 56 52 47 42 33 36
4 7 10 11 13 15 19 22 23 25 27 27 29 31 36 40 45 49 52 42 32 32 29 17 14 11 7 10 19 26 28 29 32 50 61 62 61 61 57 56 58 46 44 42 43
5 8 9 11 13 16 19 21 23 25 26 28 29 32 34 40 43 47 50 47 31 29 25 17 15 13 7 6 7 15 23 30 40 52 54 62 63 63 62 57 54 31 44 41 42
5 8 10 13 14 16 19 21 24 26 27 28 29 32 34 39 42 46 49 48 36 27 25 19 17 14 11 9 9 10 16 32 44 50 51 64 67 65 65 56 53 51 36 39 41
6 8 11 13 15 17 20 21 25 25 28 29 28 32 34 36 39 44 46 46 38 27 26 21 18 16 13 11 11 11 14 25 38 48 47 62 69 67 62 52 48 50 37 44 47
8 10 12 15 16 19 21 22 25 26 27 29 30 31 34 36 38 41 44 44 43 32 25 24 19 17 14 12 13 15 14 16 29 39 43 54 67 67 61 59 40 46 40 48 49
15 15 18 19 20 21 23 25 26 27 28 29 30 32 33 35 36 38 40 41 41 35 28 23 22 20 17 16 13 12 14 16 21 31 39 48 61 64 62 68 63 30 57 59 61
16 17 19 21 22 23 25 27 27 28 29 30 30 33 34 35 36 37 38 38 39 39 29 25 25 24 19 16 14 11 11 14 17 25 36 48 59 61 64 66 69 41 31 51 56
15 16 18 20 21 24 26 26 27 29 30 31 31 32 33 35 35 35 37 37 37 37 33 26 24 27 20 16 14 15 13 12 16 16 32 42 52 56 64 66 69 59 47 40 50
16 17 18 19 21 22 22 24 25 27 30 30 30 30 31 32 34 34 35 36 34 35 34 29 24 22 21 15 14 14 14 10 10 15 20 40 43 55 64 70 72 72 69 60 50
21 21 22 23 24 25 26 26 26 25 26 30 30 30 33 30 32 33 34 35 35 33 32 31 26 19 20 19 17 14 14 12 12 14 18 24 37 45 59 70 72 70 70 70 64
29 30 31 31 31 32 32 31 32 31 26 32 30 33 28 30 31 31 32 32 33 32 30 31 30 23 17 17 18 15 13 16 14 13 12 17 22 38 51 65 70 73 71 69 64
34 34 34 35 36 37 37 38 37 36 34 30 33 32 32 34 33 33 31 31 32 32 30 29 29 26 19 16 16 17 14 17 19 18 16 15 16 24 42 55 63 70 73 71 66
41 42 41 41 41 41 41 40 40 40 41 37 35 34 36 36 36 36 34 32 30 31 31 30 27 27 24 18 15 17 16 14 20 22 22 19 9 18 27 47 57 64 70 71 71
46 45 46 45 45 44 44 43 42 39 43 35 37 37 37 35 36 34 35 35 32 29 29 29 28 26 25 21 16 14 15 16 16 21 21 24 23 10 22 34 44 58 65 66 69
52 53 52 51 49 49 48 49 49 46 43 42 40 41 39 39 38 37 34 33 34 32 29 28 27 27 24 23 19 14 16 17 15 17 18 17 27 13 16 20 34 47 58 62 64
59 59 57 56 55 54 55 56 59 55 49 49 45 43 41 41 41 39 36 33 34 33 30 29 27 25 25 23 22 19 14 18 19 16 17 19 23 14 18 20 27 41 54 58 61
45 46 46 48 49 52 53 54 58 54 48 49 48 50 46 41 42 43 40 35 32 34 32 30 28 26 24 24 22 21 18 16 22 22 18 17 19 15 18 22 23 29 41 53 59
47 48 48 46 49 50 50 55 53 47 44 44 47 49 49 43 43 44 44 41 34 34 35 32 27 28 25 22 25 22 20 20 20 23 24 19 16 14 19 20 24 24 30 39 51
55 55 54 54 55 55 56 56 56 51 48 49 48 48 49 47 45 45 46 43 41 35 37 34 33 26 28 24 23 22 23 23 21 23 26 22 19 20 19 20 22 26 27 31 38
62 61 60 58 57 59 61 61 59 56 55 55 52 50 50 50 48 47 47 44 46 41 40 37 37 29 26 30 23 21 22 24 23 21 24 25 18 20 21 22 19 24 28 29 33
65 65 65 65 66 66 63 61 62 62 60 58 56 55 52 50 51 53 50 44 47 46 45 42 43 34 29 29 27 23 23 25 23 22 21 24 4 20 26 28 24 23 27 29 30
71 71 71 70 71 71 70 67 66 63 62 61 58 57 56 54 55 54 51 46 48 46 49 45 48 41 35 30 30 28 25 25 26 23 15 16 12 19 19 24 24 26 26 31 31
77 78 78 77 77 75 74 70 71 69 68 66 63 61 59 59 54 51 52 53 50 50 52 51 52 46 39 40 35 32 28 28 29 22 19 16 15 19 27 30 27 27 27 29 32
77 79 80 79 79 79 79 78 76 73 72 70 69 64 59 58 55 52 53 55 53 52 54 55 55 50 44 41 42 38 34 31 33 23 29 9 17 17 23 28 30 29 25 26 31
80 82 83 83 83 84 83 82 83 79 77 73 72 66 59 57 54 51 51 54 57 60 55 56 58 53 53 42 42 47 40 35 31 29 32 21 11 20 22 18 23 23 22 24 25
88 90 94 90 91 90 86 85 84 80 78 75 65 64 66 59 50 51 56 60 63 63 57 59 59 57 62 50 50 56 35 39 39 34 31 32 13 26 27 14 15 15 19 21 22
Wind_Direction
254 283 291 296 311 319 318 320 322 320 318 318 320 324 330 338 341 350 351 355 345 345 340 332 317 299 275 255 249 241 241 228 226 227 224 220 217 219 221 226 231 233 198 194 206
265 298 298 304 310 317 320 321 319 320 319 319 320 323 331 335 343 350 356 357 348 347 348 328 325 306 274 250 249 249 244 231 234 220 221 220 218 216 222 222 231 211 204 199 206
319 310 309 311 314 317 321 318 318 322 323 323 324 327 333 337 346 350 358 359 352 347 353 344 327 321 312 290 279 248 244 226 225 219 217 218 216 218 219 223 229 217 197 200 205
317 312 316 313 315 320 319 318 320 324 325 325 327 331 336 340 349 352 358 2 356 349 349 346 330 320 303 293 275 265 258 234 222 220 215 215 215 216 223 223 227 221 198 198 199
317 319 314 314 316 318 318 320 321 326 329 329 332 334 339 340 344 350 357 4 0 350 343 344 332 317 308 290 279 268 263 240 238 220 210 217 215 215 219 225 232 230 212 205 204
311 310 312 315 315 314 315 317 320 323 327 332 332 334 337 339 345 350 357 3 5 359 348 340 331 313 294 296 289 279 266 249 235 231 215 217 219 213 216 218 225 228 223 215 207
316 312 310 311 310 312 312 313 316 320 323 327 330 332 335 338 344 348 355 1 4 3 358 341 333 316 299 283 294 294 274 265 240 230 222 214 219 214 216 217 211 207 221 223 225
313 311 309 310 311 312 312 312 315 317 319 322 327 330 332 336 339 344 352 358 3 5 359 352 338 330 306 293 275 287 284 267 249 235 223 219 210 215 216 222 225 231 215 217 221
312 310 310 311 311 312 312 315 318 319 320 321 324 326 329 332 335 340 345 352 359 4 3 358 352 337 319 296 283 268 287 295 263 243 226 224 217 213 218 223 227 227 232 222 226
305 306 308 310 310 310 313 315 318 321 321 323 323 325 326 329 331 335 339 346 353 0 3 2 0 347 330 302 284 268 260 288 281 252 235 227 219 212 219 222 224 226 229 236 231
303 303 303 302 302 304 306 307 311 314 317 321 323 326 328 327 329 333 336 340 346 353 1 1 2 354 341 325 301 281 259 257 281 264 243 241 227 219 220 224 224 228 229 232 235
302 304 305 306 307 306 307 305 307 308 314 314 317 324 325 326 329 331 333 336 339 346 353 360 0 358 350 332 318 295 273 252 258 273 259 251 240 226 222 226 226 228 229 232 234
297 297 298 298 299 301 303 305 305 303 304 306 310 316 320 323 327 327 329 332 335 338 344 351 356 359 349 340 327 303 287 264 257 259 266 266 245 239 227 228 227 230 232 230 235
296 297 297 297 297 297 298 299 301 304 304 308 309 311 315 318 322 324 327 327 330 333 336 342 349 354 353 340 334 313 287 273 260 258 261 266 263 237 233 231 228 229 234 233 233
295 294 294 292 292 292 292 293 296 297 299 303 303 302 305 309 314 318 321 322 324 327 329 334 339 345 349 347 331 320 306 278 270 262 260 265 262 226 238 232 235 232 234 238 234
293 294 294 294 294 294 293 294 295 294 296 297 300 299 298 302 306 312 315 317 319 321 322 325 329 334 338 343 344 323 305 304 284 270 269 262 269 221 262 235 226 228 230 233 237
290 290 289 288 288 289 291 292 291 289 297 298 296 295 294 296 298 301 307 312 313 315 316 317 319 324 327 332 339 337 318 299 289 280 275 267 265 256 242 251 231 228 225 229 234
291 293 294 291 288 288 289 291 288 296 298 296 293 289 288 290 291 292 296 302 306 307 309 311 311 311 317 322 327 334 331 304 291 288 272 267 270 275 251 246 247 235 230 228 229
289 290 291 289 289 289 288 288 294 300 299 293 290 289 289 285 284 287 289 293 299 299 300 304 304 305 307 312 316 322 323 320 313 298 290 271 268 260 245 250 247 246 240 229 229
291 291 290 288 287 287 285 288 294 295 290 287 288 288 287 285 280 279 282 287 292 294 295 298 296 299 298 300 303 313 311 314 317 309 300 292 270 263 258 256 246 245 244 239 229
290 290 287 285 283 282 286 289 289 288 288 287 286 286 285 282 282 279 275 280 283 289 288 291 289 293 293 291 296 299 303 302 307 317 311 306 286 266 251 256 246 241 243 243 238
285 285 285 284 284 284 285 283 284 286 283 281 282 283 281 278 278 277 276 273 277 281 283 285 287 287 287 285 286 288 292 294 299 300 313 312 342 259 255 257 254 243 240 241 240
290 289 289 288 288 289 288 287 284 281 280 279 277 276 275 273 270 273 275 270 270 274 276 279 281 284 283 280 278 280 278 284 288 294 312 300 322 249 248 253 250 246 236 236 239
291 291 290 288 288 287 284 284 282 279 279 276 275 274 274 273 268 267 270 268 265 266 270 272 274 279 283 277 275 270 268 272 274 284 278 299 297 284 265 252 247 238 241 238 236
288 287 287 288 286 284 281 282 279 278 278 276 275 274 270 265 264 262 258 262 264 263 262 265 268 272 273 277 273 272 264 265 273 280 274 267 298 291 279 272 260 260 246 244 240
287 287 285 284 282 279 278 278 277 276 275 274 272 270 264 261 261 255 250 253 257 260 262 261 264 266 268 269 272 269 265 272 269 273 275 277 278 264 280 293 287 277 259 254 246
287 285 284 283 280 279 277 275 273 272 270 270 269 264 263 263 252 247 245 246 251 257 257 254 257 262 264 264 263 262 271 267 266 263 271 263 253 248 272 289 283 282 280 255 250
Height
5829 5830 5830 5830 5828 5826 5825 5822 5819 5816 5813 5810 5806 5802 5797 5789 5781 5770 5760 5747 5738 5729 5721 5715 5712 5708 5706 5706 5709 5714 5723 5732 5737 5744 5758 5761 5767 5779 5786 5791 5798 5803 5805 5816 5825
5827 5827 5827 5826 5825 5823 5821 5818 5815 5812 5809 5806 5802 5797 5792 5785 5776 5767 5756 5743 5735 5728 5721 5716 5712 5708 5705 5705 5707 5711 5719 5727 5729 5727 5734 5750 5761 5771 5775 5782 5784 5785 5801 5808 5816
5826 5825 5824 5823 5821 5819 5817 5815 5812 5809 5805 5802 5798 5793 5788 5781 5773 5764 5753 5743 5733 5728 5721 5717 5712 5709 5706 5705 5706 5710 5714 5713 5713 5717 5729 5743 5754 5763 5765 5772 5768 5781 5790 5802 5813
5823 5823 5822 5821 5819 5816 5814 5811 5808 5805 5802 5798 5794 5790 5784 5778 5771 5761 5751 5742 5732 5726 5722 5717 5713 5709 5707 5705 5705 5706 5707 5707 5706 5713 5725 5735 5745 5754 5759 5768 5774 5785 5788 5791 5805
5821 5820 5819 5818 5816 5813 5811 5808 5806 5802 5799 5795 5790 5785 5781 5775 5769 5760 5751 5740 5732 5724 5721 5716 5713 5710 5707 5705 5704 5704 5704 5705 5706 5711 5721 5729 5737 5747 5756 5765 5771 5773 5783 5788 5798
5818 5817 5816 5815 5813 5811 5808 5805 5802 5799 5796 5792 5787 5782 5777 5772 5764 5757 5748 5739 5732 5724 5718 5716 5711 5708 5705 5703 5702 5702 5702 5702 5703 5711 5717 5724 5730 5741 5752 5757 5768 5774 5778 5783 5790
5817 5815 5814 5813 5810 5808 5805 5802 5799 5796 5792 5788 5784 5779 5774 5770 5762 5755 5747 5739 5732 5723 5717 5714 5710 5706 5702 5701 5699 5698 5700 5700 5700 5705 5711 5715 5724 5736 5746 5749 5757 5749 5762 5773 5779
5814 5812 5811 5809 5807 5803 5801 5798 5795 5792 5789 5784 5780 5775 5771 5766 5760 5753 5746 5739 5732 5724 5717 5710 5708 5703 5700 5698 5697 5696 5696 5696 5698 5700 5706 5705 5718 5728 5739 5739 5742 5748 5755 5765 5770
5811 5809 5807 5804 5802 5800 5798 5795 5791 5787 5784 5780 5777 5773 5768 5763 5758 5752 5746 5739 5732 5724 5717 5710 5704 5702 5697 5695 5694 5693 5693 5694 5695 5697 5700 5702 5713 5724 5725 5728 5735 5742 5747 5754 5757
5807 5805 5803 5800 5797 5795 5792 5790 5787 5783 5778 5776 5772 5770 5765 5760 5755 5749 5744 5738 5732 5725 5718 5710 5703 5700 5697 5693 5691 5690 5690 5691 5692 5695 5694 5695 5705 5713 5715 5718 5724 5735 5742 5745 5752
5803 5801 5798 5796 5793 5790 5788 5785 5784 5781 5775 5770 5768 5763 5759 5755 5751 5746 5741 5736 5730 5725 5718 5711 5704 5699 5696 5693 5690 5687 5687 5688 5689 5689 5691 5692 5699 5709 5713 5712 5717 5726 5735 5738 5746
5800 5797 5795 5792 5789 5786 5783 5780 5777 5775 5775 5767 5763 5760 5756 5752 5747 5742 5738 5735 5730 5724 5719 5712 5705 5698 5694 5692 5690 5687 5684 5684 5685 5685 5688 5689 5694 5697 5701 5707 5715 5719 5725 5732 5738
5793 5790 5787 5785 5782 5779 5776 5773 5770 5767 5767 5765 5761 5756 5752 5749 5744 5739 5736 5730 5726 5722 5717 5712 5706 5699 5693 5689 5688 5686 5683 5681 5682 5681 5682 5684 5688 5692 5700 5701 5708 5710 5714 5724 5730
5785 5782 5780 5777 5776 5771 5767 5764 5762 5759 5757 5760 5755 5752 5748 5744 5741 5737 5732 5728 5723 5719 5714 5711 5706 5699 5694 5689 5686 5683 5682 5680 5678 5678 5678 5680 5683 5686 5689 5693 5695 5703 5704 5715 5724
5775 5773 5769 5767 5764 5762 5759 5755 5752 5751 5747 5749 5746 5744 5741 5739 5734 5732 5728 5724 5721 5716 5712 5708 5703 5699 5694 5688 5684 5682 5680 5678 5676 5675 5675 5676 5676 5682 5682 5685 5694 5701 5705 5709 5719
5763 5760 5758 5756 5753 5750 5747 5745 5744 5743 5740 5740 5738 5735 5734 5732 5729 5724 5722 5718 5716 5713 5708 5704 5701 5697 5693 5688 5683 5679 5677 5675 5674 5673 5673 5674 5670 5676 5677 5680 5681 5684 5689 5694 5700
5752 5747 5745 5743 5741 5738 5735 5732 5730 5729 5735 5730 5728 5725 5724 5724 5721 5718 5716 5713 5709 5707 5705 5701 5696 5693 5691 5687 5682 5677 5673 5672 5672 5669 5670 5669 5667 5670 5670 5670 5672 5674 5676 5682 5689
5741 5736 5732 5728 5727 5724 5723 5720 5714 5719 5722 5719 5717 5713 5712 5715 5713 5711 5709 5708 5704 5700 5698 5696 5695 5689 5686 5683 5680 5675 5671 5668 5666 5665 5664 5664 5663 5664 5662 5664 5665 5667 5670 5676 5679
5730 5726 5722 5718 5714 5712 5710 5705 5706 5709 5709 5706 5704 5700 5701 5704 5702 5700 5700 5700 5699 5695 5692 5689 5689 5686 5681 5678 5676 5673 5669 5665 5661 5659 5657 5658 5659 5658 5657 5658 5659 5661 5663 5666 5672
5717 5715 5712 5707 5703 5700 5697 5696 5695 5697 5695 5690 5689 5689 5686 5689 5689 5688 5687 5690 5688 5688 5683 5682 5680 5681 5678 5674 5670 5669 5666 5662 5658 5654 5651 5652 5651 5651 5652 5652 5652 5654 5657 5660 5664
5700 5697 5694 5692 5690 5686 5683 5683 5682 5684 5680 5677 5676 5675 5674 5673 5675 5675 5675 5680 5678 5679 5675 5674 5671 5675 5672 5668 5665 5663 5661 5658 5655 5651 5646 5645 5646 5645 5646 5646 5646 5647 5649 5652 5657
5682 5680 5675 5672 5671 5668 5671 5670 5668 5665 5662 5662 5663 5661 5660 5661 5659 5658 5663 5669 5667 5667 5664 5664 5659 5663 5664 5662 5661 5659 5655 5653 5651 5649 5644 5640 5641 5638 5637 5637 5641 5641 5641 5644 5647
5659 5657 5655 5652 5649 5647 5647 5651 5649 5647 5645 5643 5644 5645 5646 5645 5642 5643 5647 5655 5654 5655 5652 5655 5650 5652 5655 5656 5654 5652 5649 5645 5644 5644 5643 5637 5638 5632 5632 5631 5632 5634 5635 5635 5639
5639 5635 5633 5631 5630 5627 5624 5630 5627 5627 5623 5621 5625 5626 5628 5627 5628 5630 5632 5634 5640 5642 5639 5639 5637 5642 5645 5642 5643 5643 5642 5639 5635 5638 5637 5634 5631 5629 5627 5625 5626 5625 5628 5631 5633
5616 5612 5607 5609 5606 5602 5600 5602 5603 5608 5602 5599 5601 5605 5606 5605 5611 5614 5617 5617 5622 5625 5626 5625 5625 5628 5632 5632 5629 5631 5632 5631 5626 5631 5625 5632 5626 5625 5622 5620 5620 5620 5621 5624 5627
5591 5587 5584 5583 5580 5578 5576 5577 5574 5580 5576 5581 5574 5583 5581 5583 5593 5596 5601 5601 5603 5605 5610 5612 5610 5613 5614 5622 5619 5614 5619 5624 5623 5622 5617 5621 5622 5619 5615 5614 5614 5613 5616 5616 5619
5563 5557 5546 5558 5552 5549 5551 5545 5547 5548 5557 5552 5555 5554 5556 5569 5572 5576 5578 5581 5583 5587 5592 5594 5597 5599 5595 5606 5605 5596 5616 5612 5611 5613 5612 5610 5617 5611 5611 5610 5609 5608 5608 5610 5610